Find Starlink 2494

NORAD ID: 48487 Int'l Des: 2021-040 Owner: SPXS Country: US Constellation: starlink operational
LEOCIRCULAR

当前视图

正在加载3D地球...

About Starlink 2494

Starlink 2494 (NORAD 48487) is a starlink constellation satellite (v1.0) launched May 9, 2021 by SPXS of US. It operates in LEO, CIRCULAR orbit with a mass of 260.00 kg.

关于 Starlink 2494

正在加载描述...

即将过境

Passes for default location (London). Set your location on the main map for personalized predictions.

高度历史

Loading altitude history...

两行轨道根数

1 48487U 21040BM 26171.13803522 .00000885 00000-0 40260-4 0 9996
2 48487 53.1606 77.4220 0001233 123.8022 236.3097 15.31704959282166
Epoch: Jun 20, 2026 • Age: 48 hours

当前状态

高度 486.1 km
速度 7.62 km/s
星下点 -43.36°S, 58.96°E
发射日期 May 9, 2021
运行时间 5.1 years
类型 internet

技术详情

分类 Payload
质量 260.00 kg
干质量 248.00 kg
总质量 260.00 kg
长度 0.20 m
直径 2.80 m
跨度 9.00 m
形状 Box + pan
制造商 SPXS
平台类型 Starlink
阶段状态 In Orbit
所有者/国家 SPXS/US

Most Searched